Highspire, PA

11:41 AM EDT on August 28, 2016 (GMT -0400)
Harrisburg International

Weather History for KMDT - October, 2011

Change the Weather History Date:

Friday, October 21, 2011

  Actual Average Record
Temperature  
Mean Temperature 51 °F 53 °F  
Max Temperature 56 °F 63 °F 84 °F (1947)
Min Temperature 46 °F 43 °F 29 °F (1972)
Degree Days  
Heating Degree Days 14 12  
Month to date heating degree days 152 198  
Since 1 July heating degree days 198 270  
Cooling Degree Days 0 0  
Month to date cooling degree days 0 10  
Year to date cooling degree days 1246 1003  
Growing Degree Days 1 (Base 50)    
Moisture  
Dew Point 40 °F    
Average Humidity 71    
Maximum Humidity 82    
Minimum Humidity 59    
Precipitation  
Precipitation T in 0.10 in 2.74 in (1995)
Month to date precipitation 2.47 2.35  
Year to date precipitation 64.29 33.36  
Snow  
Snow 0.00 in 0.00 in T in (1972)
Month to date snowfall 0.0 0.0  
Since 1 July snowfall 0.0 0.0  
Since 1 September snowfall 0.0 0.0  
Snow Depth 0.00 in    
Sea Level Pressure  
Sea Level Pressure 29.95 in    
Wind  
Wind Speed 11 mph (West)    
Max Wind Speed 18 mph    
Max Gust Speed 25 mph    
Visibility 10 miles    
Events Rain    
T = Trace of Precipitation, MM = Missing Value Source: NWS Daily Summary

Daily Weather History Graph

Daily Weather History Graph

Search for Another Location

Airport or City:

Trip Planner

Search our weather history database for the weather conditions in past years. The results will help you decide how hot, cold, wet, or windy it might be!

Date:

Astronomy

Oct. 21, 2011 Rise Set
Actual Time 7:23 AM EDT 6:18 PM EDT
Civil Twilight 6:56 AM EDT 6:46 PM EDT
Nautical Twilight 6:24 AM EDT 7:18 PM EDT
Astronomical Twilight 5:53 AM EDT 7:49 PM EDT
Moon 1:11 AM EDT (10/21) 3:02 PM EDT (10/21)
Length of Visible Light 11h 50m
Length of Day
10h 55m
Waning Crescent, 34% of the Moon is Illuminated
Oct 21
Waning Crescent
Oct 26
New
Nov 2
First Quarter
Nov 10
Full
Nov 18
Last Quarter

Hourly Weather History & Observations

Time (EDT) Temp. Dew Point Humidity Pressure Visibility Wind Dir Wind Speed Gust Speed Precip Events Conditions
12:56 AM 50.0 °F 37.9 °F 63% 29.76 in 10.0 mi West 5.8 mph - N/A   Partly Cloudy
1:56 AM 50.0 °F 37.9 °F 63% 29.78 in 10.0 mi Variable 6.9 mph - N/A   Clear
2:56 AM 50.0 °F 37.9 °F 63% 29.79 in 10.0 mi WSW 10.4 mph 17.3 mph N/A   Clear
3:56 AM 48.9 °F 39.0 °F 69% 29.80 in 10.0 mi WSW 13.8 mph 20.7 mph N/A   Clear
4:56 AM 48.9 °F 39.0 °F 69% 29.82 in 10.0 mi WSW 11.5 mph - N/A   Overcast
5:56 AM 48.9 °F 39.9 °F 71% 29.85 in 10.0 mi WSW 12.7 mph - N/A   Mostly Cloudy
6:56 AM 48.9 °F 39.9 °F 71% 29.88 in 10.0 mi WSW 12.7 mph - N/A   Mostly Cloudy
7:56 AM 48.0 °F 41.0 °F 77% 29.91 in 10.0 mi SW 9.2 mph - N/A   Mostly Cloudy
8:56 AM 50.0 °F 41.0 °F 71% 29.94 in 10.0 mi WSW 6.9 mph - N/A   Mostly Cloudy
9:56 AM 50.0 °F 41.0 °F 71% 29.95 in 10.0 mi West 12.7 mph 21.9 mph N/A   Overcast
10:56 AM 52.0 °F 39.9 °F 63% 29.96 in 10.0 mi West 12.7 mph 20.7 mph N/A   Overcast
11:56 AM 53.1 °F 39.0 °F 59% 29.98 in 10.0 mi West 15.0 mph 20.7 mph N/A   Overcast
12:56 PM 54.0 °F 39.9 °F 59% 29.97 in 10.0 mi West 15.0 mph 20.7 mph N/A   Overcast
1:56 PM 53.1 °F 41.0 °F 64% 29.98 in 9.0 mi WNW 11.5 mph - 0.00 in Rain Light Rain
2:56 PM 53.1 °F 42.1 °F 66% 29.98 in 10.0 mi West 15.0 mph 21.9 mph 0.00 in Rain Light Rain
3:56 PM 54.0 °F 41.0 °F 62% 29.98 in 10.0 mi WNW 17.3 mph 21.9 mph 0.00 in   Mostly Cloudy
4:56 PM 54.0 °F 41.0 °F 62% 29.99 in 10.0 mi West 11.5 mph - N/A   Mostly Cloudy
5:56 PM 52.0 °F 41.0 °F 66% 30.02 in 10.0 mi West 10.4 mph - N/A   Overcast
6:56 PM 52.0 °F 41.0 °F 66% 30.04 in 10.0 mi West 9.2 mph - N/A   Overcast
7:56 PM 51.1 °F 41.0 °F 68% 30.06 in 10.0 mi West 10.4 mph - N/A   Mostly Cloudy
8:56 PM 50.0 °F 41.0 °F 71% 30.07 in 10.0 mi West 9.2 mph - N/A   Mostly Cloudy
9:56 PM 50.0 °F 41.0 °F 71% 30.08 in 10.0 mi West 10.4 mph - N/A   Partly Cloudy
10:56 PM 48.0 °F 41.0 °F 77% 30.09 in 10.0 mi WNW 9.2 mph - N/A   Partly Cloudy
11:56 PM 46.9 °F 41.0 °F 80% 30.08 in 10.0 mi NW 9.2 mph - N/A   Partly Cloudy